• In Hungary
  • List of Countries
  • For 7 days
  • Water Temperature
  • Satellite Maps
  • Weather Map
  • News
  • Weather Widgets
  • user-avatar
    Login

    Hourly Weather Niwiska

    Today, 23 January, Tuesday

    Time Temperature Precipitation Wind Pressure Humidity
    00:00 -2°C° 0.1 mm 2 mps 752 mmHg 82%
    01:00 -1°C° 0 mm 1 mps 752 mmHg 86%
    02:00 -1°C° 0 mm 1 mps 753 mmHg 87%
    03:00 -1°C° 0 mm 1 mps 754 mmHg 88%
    04:00 -1°C° 0 mm 1 mps 754 mmHg 89%
    05:00 -1°C° 0 mm 1 mps 755 mmHg 90%
    06:00 -1°C° 0 mm 1 mps 755 mmHg 90%
    07:00 -1°C° 0 mm 1 mps 756 mmHg 90%
    08:00 -1°C° 0 mm 1 mps 757 mmHg 88%
    09:00 0°C° 0 mm 1 mps 757 mmHg 86%
    10:00 0°C° 0 mm 1 mps 758 mmHg 84%
    11:00 +1°C° 0 mm 1 mps 758 mmHg 82%
    12:00 +2°C° 0 mm 1 mps 759 mmHg 81%
    13:00 +3°C° 0 mm 1 mps 759 mmHg 79%
    14:00 +3°C° 0 mm 1 mps 759 mmHg 83%
    15:00 +2°C° 0 mm 1 mps 759 mmHg 87%
    16:00 +2°C° 0 mm 1 mps 760 mmHg 91%
    17:00 +2°C° 0 mm 1 mps 760 mmHg 92%
    18:00 +1°C° 0 mm 2 mps 760 mmHg 93%
    19:00 +2°C° 0 mm 2 mps 760 mmHg 95%
    20:00 +2°C° 0 mm 2 mps 760 mmHg 94%
    21:00 +2°C° 0 mm 2 mps 760 mmHg 94%
    22:00 +1°C° 0 mm 3 mps 760 mmHg 94%
    23:00 +1°C° 0 mm 3 mps 759 mmHg 92%

    Tomorrow, 24 January, Wednesday

    Time Temperature Precipitation Wind Pressure Humidity
    00:00 +1°C° 0 mm 3 mps 759 mmHg 90%
    01:00 0°C° 0 mm 4 mps 759 mmHg 89%
    02:00 0°C° 0.3 mm 4 mps 758 mmHg 89%
    03:00 +1°C° 0.3 mm 4 mps 758 mmHg 89%
    04:00 +1°C° 0.3 mm 4 mps 758 mmHg 89%
    05:00 +3°C° 0.2 mm 4 mps 758 mmHg 90%
    06:00 +3°C° 0.2 mm 4 mps 757 mmHg 91%
    07:00 +3°C° 0.2 mm 4 mps 757 mmHg 92%
    08:00 +4°C° 0 mm 4 mps 758 mmHg 91%
    09:00 +4°C° 0 mm 4 mps 758 mmHg 91%
    10:00 +5°C° 0 mm 4 mps 758 mmHg 90%
    11:00 +5°C° 0 mm 4 mps 758 mmHg 88%
    12:00 +6°C° 0 mm 4 mps 757 mmHg 86%
    13:00 +7°C° 0 mm 4 mps 757 mmHg 84%
    14:00 +7°C° 0 mm 4 mps 757 mmHg 85%
    15:00 +6°C° 0 mm 4 mps 757 mmHg 86%
    16:00 +6°C° 0 mm 4 mps 757 mmHg 88%
    17:00 +5°C° 0 mm 4 mps 757 mmHg 88%
    18:00 +5°C° 0 mm 4 mps 756 mmHg 88%
    19:00 +5°C° 0 mm 4 mps 756 mmHg 89%
    20:00 +5°C° 0 mm 5 mps 756 mmHg 87%
    21:00 +5°C° 0 mm 5 mps 756 mmHg 85%
    22:00 +5°C° 0 mm 5 mps 756 mmHg 83%
    23:00 +5°C° 0 mm 5 mps 755 mmHg 81%

    Day after tomorrow, 25 January, Thursday

    Time Temperature Precipitation Wind Pressure Humidity
    00:00 +5°C° 0 mm 5 mps 755 mmHg 78%
    01:00 +5°C° 0 mm 5 mps 755 mmHg 76%
    02:00 +5°C° 0 mm 5 mps 754 mmHg 75%
    03:00 +5°C° 0 mm 5 mps 754 mmHg 73%
    04:00 +5°C° 0 mm 5 mps 754 mmHg 72%
    05:00 +5°C° 0 mm 5 mps 754 mmHg 73%
    06:00 +5°C° 0 mm 5 mps 754 mmHg 74%
    07:00 +3°C° 0 mm 5 mps 753 mmHg 74%
    08:00 +5°C° 0 mm 5 mps 753 mmHg 73%
    09:00 +5°C° 0 mm 5 mps 753 mmHg 72%
    10:00 +6°C° 0 mm 5 mps 753 mmHg 71%
    11:00 +6°C° 0 mm 4 mps 753 mmHg 70%
    12:00 +7°C° 0 mm 4 mps 753 mmHg 69%
    13:00 +7°C° 0 mm 4 mps 753 mmHg 68%
    14:00 +7°C° 0 mm 4 mps 753 mmHg 69%
    15:00 +7°C° 0 mm 3 mps 753 mmHg 71%
    16:00 +7°C° 0 mm 3 mps 752 mmHg 73%
    17:00 +5°C° 0 mm 3 mps 752 mmHg 74%
    18:00 +5°C° 0 mm 3 mps 752 mmHg 75%
    19:00 +4°C° 0 mm 3 mps 752 mmHg 76%
    20:00 +4°C° 0 mm 3 mps 752 mmHg 76%
    21:00 +4°C° 0 mm 3 mps 752 mmHg 77%
    22:00 +4°C° 0 mm 3 mps 752 mmHg 77%
    23:00 +4°C° 0 mm 3 mps 752 mmHg 78%

    26 January, Friday

    Time Temperature Precipitation Wind Pressure Humidity
    00:00 +3°C° 0 mm 3 mps 752 mmHg 79%
    01:00 +4°C° 0 mm 2 mps 752 mmHg 80%
    02:00 +4°C° 0.1 mm 2 mps 752 mmHg 81%
    03:00 +4°C° 0.1 mm 2 mps 752 mmHg 83%
    04:00 +4°C° 0.1 mm 2 mps 752 mmHg 84%
    05:00 +3°C° 0.1 mm 2 mps 752 mmHg 86%
    06:00 +3°C° 0.1 mm 2 mps 753 mmHg 87%
    07:00 +3°C° 0.1 mm 2 mps 753 mmHg 88%
    08:00 +3°C° 0 mm 2 mps 753 mmHg 88%
    09:00 +4°C° 0 mm 2 mps 753 mmHg 88%
    10:00 +4°C° 0 mm 2 mps 754 mmHg 87%
    11:00 +6°C° 0.2 mm 1 mps 754 mmHg 88%
    12:00 +6°C° 0.2 mm 1 mps 754 mmHg 88%
    13:00 +6°C° 0.2 mm 1 mps 754 mmHg 89%
    14:00 +6°C° 0.4 mm 1 mps 754 mmHg 90%
    15:00 +6°C° 0.4 mm 1 mps 754 mmHg 92%
    16:00 +6°C° 0.4 mm 1 mps 755 mmHg 94%
    17:00 +6°C° 0.1 mm 1 mps 755 mmHg 95%
    18:00 +5°C° 0.1 mm 1 mps 755 mmHg 95%
    19:00 +5°C° 0.1 mm 1 mps 756 mmHg 95%
    20:00 +5°C° 0.1 mm 1 mps 756 mmHg 95%
    21:00 +5°C° 0.1 mm 1 mps 756 mmHg 95%
    22:00 +4°C° 0.1 mm 2 mps 757 mmHg 95%
    23:00 +4°C° 0.1 mm 2 mps 757 mmHg 95%

    27 January, Saturday

    Time Temperature Precipitation Wind Pressure Humidity
    00:00 +4°C° 0.1 mm 2 mps 757 mmHg 95%
    01:00 +4°C° 0.1 mm 2 mps 758 mmHg 94%
    02:00 +3°C° 0.1 mm 2 mps 758 mmHg 94%
    03:00 +3°C° 0.1 mm 2 mps 758 mmHg 94%
    04:00 +3°C° 0.1 mm 2 mps 758 mmHg 94%
    05:00 +2°C° 0 mm 2 mps 759 mmHg 94%
    06:00 +2°C° 0 mm 2 mps 759 mmHg 94%
    07:00 +2°C° 0 mm 2 mps 760 mmHg 94%
    08:00 +2°C° 0 mm 2 mps 760 mmHg 92%
    09:00 +3°C° 0 mm 2 mps 761 mmHg 89%
    10:00 +2°C° 0 mm 3 mps 762 mmHg 87%
    11:00 +3°C° 0 mm 3 mps 762 mmHg 84%
    12:00 +4°C° 0 mm 3 mps 762 mmHg 80%
    13:00 +4°C° 0 mm 3 mps 763 mmHg 77%
    14:00 +4°C° 0 mm 3 mps 763 mmHg 77%
    15:00 +5°C° 0 mm 2 mps 763 mmHg 78%
    16:00 +4°C° 0 mm 2 mps 763 mmHg 78%
    17:00 +3°C° 0 mm 2 mps 764 mmHg 81%
    18:00 +2°C° 0 mm 2 mps 764 mmHg 84%
    19:00 +2°C° 0 mm 2 mps 765 mmHg 87%
    20:00 +1°C° 0 mm 2 mps 765 mmHg 88%
    21:00 +1°C° 0 mm 2 mps 765 mmHg 89%
    22:00 -1°C° 0 mm 2 mps 766 mmHg 90%
    23:00 -1°C° 0 mm 2 mps 766 mmHg 91%

    28 January, Sunday

    Time Temperature Precipitation Wind Pressure Humidity
    00:00 -1°C° 0 mm 2 mps 766 mmHg 91%
    01:00 -1°C° 0 mm 2 mps 766 mmHg 91%
    02:00 -1°C° 0 mm 2 mps 765 mmHg 91%
    03:00 -1°C° 0 mm 2 mps 765 mmHg 91%
    04:00 -1°C° 0 mm 2 mps 765 mmHg 90%
    05:00 -1°C° 0 mm 3 mps 765 mmHg 88%
    06:00 0°C° 0 mm 3 mps 764 mmHg 86%
    07:00 -1°C° 0 mm 4 mps 764 mmHg 83%
    08:00 0°C° 0 mm 4 mps 764 mmHg 78%
    09:00 +1°C° 0 mm 5 mps 763 mmHg 72%
    10:00 +2°C° 0 mm 6 mps 763 mmHg 66%
    11:00 +2°C° 0 mm 6 mps 763 mmHg 66%
    12:00 +3°C° 0 mm 6 mps 762 mmHg 66%
    13:00 +3°C° 0 mm 6 mps 762 mmHg 65%
    14:00 +3°C° 0.1 mm 6 mps 762 mmHg 71%
    15:00 +3°C° 0.1 mm 6 mps 762 mmHg 76%
    16:00 +2°C° 0.1 mm 5 mps 761 mmHg 82%
    17:00 +3°C° 0.1 mm 5 mps 762 mmHg 84%
    18:00 +3°C° 0.1 mm 5 mps 762 mmHg 87%
    19:00 +3°C° 0.1 mm 5 mps 762 mmHg 89%
    20:00 +3°C° 0.1 mm 5 mps 762 mmHg 90%
    21:00 +3°C° 0.1 mm 5 mps 762 mmHg 91%
    22:00 +5°C° 0.1 mm 5 mps 762 mmHg 91%
    23:00 +5°C° 0.1 mm 5 mps 762 mmHg 91%
    Show more